カタログに戻る

FENGYUN 1C DEB

運用中SSO
NORAD 30640·DEBRIS·🇨🇳 China

打ち上げ May 10, 1999 から Taiyuan Satellite Launch Center

Loading…

次のパス (今後24時間)

TLE

最新Source: Space-Track

元期: Sep 14, 2026, 11:57 UTC

1 30640U 99025ANX 26257.49842571  .00001282  00000-0  65428-3 0  9991
2 30640  99.0413 337.6950 0079087  40.8455  80.1219 14.15911836  3453

AllMySatでFENGYUN 1C DEBをリアルタイム追跡

Download on the App Store